{"data":{"norad_id":44874,"intl_designator":"2019-092B","name":"CHEOPS","alt_names":[],"object_type":"PAYLOAD","status":"ACTIVE","operator":null,"country":"ESA","launch_date":"2019-12-18","launch_site_code":"FRGUI","launch_vehicle":null,"mission":null,"orbit_class":"UNKNOWN","rcs_meters":null,"size_class":null,"mass_kg":null,"dimensions":null,"purposes":[],"wikipedia_slug":null,"has_3d_model":false,"image_url":null,"decayed_at":null,"tle_current":{"epoch":"2026-09-20T00:16:51.974688Z","epoch_age_seconds":103902,"freshness":"FRESH","line1":"1 44874U 19092B   26263.01171267  .00000179  00000+0  45118-4 0  9991","line2":"2 44874  98.1511  89.9714 0010943 156.2819 203.8889 14.62016382359751","mean_motion":14.62016382,"eccentricity":0.0010943,"inclination_deg":98.1511,"raan_deg":89.9714,"arg_perigee_deg":156.2819,"mean_anomaly_deg":203.8889,"bstar":4.5118e-5,"rev_number":35975,"period_min":98.494108392282,"perigee_km":678.93973926556,"apogee_km":694.40177752559,"semimajor_km":7064.8077583956,"source":"CELESTRAK","updated_at":"2026-09-20T09:00:14.568982Z"}}}